Regional Weather Roundup
Issued by NWS

Home | Current Version | Previous Version | Graphics & Text | Print | Product List | Glossary On
Versions: 1 2 3 4 5 6 7 8 9 10 11 12 13 14 15 16 17 18 19 20 21 22 23 24 25 26 27 28 29 30 31 32 33 34 35 36 37 38 39 40 41 42 43 44 45 46 47 48 49 50
000
ASUS43 KLMK 300202
RWRKY
KENTUCKY REGIONAL WEATHER ROUNDUP
NATIONAL WEATHER SERVICE LOUISVILLE KY
1000 PM EDT FRI JUL 29 2016

NOTE "FAIR" INDICATES FEW OR NO CLOUDS BELOW 12,000 FEET
WITH NO SIGNIFICANT WEATHER AND/OR OBSTRUCTIONS TO VISIBILITY.

KYZ001>023-026-027-061>063-070>075-300300-
WESTERN AND SOUTH CENTRAL KENTUCKY

CITY           SKY/WX    TMP DP  RH WIND       PRES   REMARKS
PADUCAH        LGT RAIN  74  71  91 E8        29.90F
HENDERSON      CLOUDY    73  70  88 CALM      29.92R
OWENSBORO      MOCLDY    74  74 100 SW3       29.94R
HOPKINSVILLE   CLOUDY    75  72  92 SW3       29.97R
BOWLING GREEN  CLOUDY    77  71  82 W3        29.96R
GLASGOW        NOT AVBL
$$

KYZ024-025-028>034-038-045-046-053-300300-
NORTH CENTRAL KENTUCKY

CITY           SKY/WX    TMP DP  RH WIND       PRES   REMARKS
LOUISVILLE/SDF CLOUDY    78  73  84 W5        29.91S
LOUISVILLE/LOU PTCLDY    76  73  91 CALM      29.92S
FORT KNOX      CLOUDY    74  71  88 CALM      29.93R
$$

KYZ035>037-039>044-047>052-055>060-089>105-300300-
NORTHEAST KENTUCKY

CITY           SKY/WX    TMP DP  RH WIND       PRES   REMARKS
LEXINGTON      PTCLDY    76  69  79 S8        29.94S
COVINGTON      CLOUDY    72  69  90 N5        29.94R THUNDER
FRANKFORT      RAIN      74  69  85 SW6       29.92R
$$

KYZ054-064>069-076>088-106>120-300300-
SOUTHEAST KENTUCKY

CITY           SKY/WX    TMP DP  RH WIND       PRES   REMARKS
JACKSON        PTCLDY    71  69  93 CALM      29.99R
LONDON         CLEAR     72  68  87 S3        29.99S
SOMERSET       PTCLDY    70  70 100 CALM      29.99R
MIDDLESBORO    MOCLDY    72  71  99 W3        30.02S
MONTICELLO     CLEAR    N/A N/A N/A CALM      30.00R
$$




USA.gov is the U.S. government's official web portal to all federal, state and local government web resources and services.